UAL8429 KEWR-CYYZ

Flight info

Callsign UAL8429
Flight time 1h 4m
Altitude 32000
Route GAYEL Q818 WOZEE LINNG3
Aircraft B38M/M-SDE1FGHILORVWXY/HB1

Departure

Time 2026-05-05 00:25
Airport Newark Liberty International Airport (KEWR)

Arrival

Time 2026-05-05 01:29
Airport Toronto Pearson International Airport (CYYZ)
Time Latitude Longitude Altitude Speed Heading
2026-05-05 00:02 40.69712 -74.17474 4 ft 0 kts 309°
2026-05-05 00:13 40.69702 -74.17459 22 ft 2 kts 318°
2026-05-05 00:13 40.69689 -74.17446 26 ft 2 kts 332°
2026-05-05 00:13 40.69673 -74.17440 24 ft 2 kts
2026-05-05 00:14 40.69658 -74.17446 26 ft 2 kts 33°
2026-05-05 00:14 40.69648 -74.17455 24 ft 1 kts 40°
2026-05-05 00:14 40.69648 -74.17456 24 ft 0 kts 40°
2026-05-05 00:18 40.69648 -74.17455 24 ft 1 kts 40°
2026-05-05 00:18 40.69665 -74.17436 26 ft 7 kts 40°
2026-05-05 00:18 40.69717 -74.17377 25 ft 12 kts 41°
2026-05-05 00:19 40.69783 -74.17309 25 ft 10 kts 44°
2026-05-05 00:19 40.69835 -74.17240 24 ft 8 kts 53°
2026-05-05 00:19 40.69835 -74.17201 22 ft 2 kts 121°
2026-05-05 00:19 40.69822 -74.17178 25 ft 4 kts 133°
2026-05-05 00:20 40.69780 -74.17128 22 ft 13 kts 143°
2026-05-05 00:20 40.69718 -74.17073 22 ft 9 kts 151°
2026-05-05 00:20 40.69664 -74.17038 24 ft 9 kts 156°
2026-05-05 00:20 40.69626 -74.16993 22 ft 6 kts 110°
2026-05-05 00:21 40.69630 -74.16962 25 ft 3 kts 69°
2026-05-05 00:21 40.69646 -74.16909 24 ft 10 kts 69°
2026-05-05 00:21 40.69673 -74.16810 24 ft 11 kts 65°
2026-05-05 00:21 40.69726 -74.16713 23 ft 15 kts 27°
2026-05-05 00:22 40.69820 -74.16654 21 ft 14 kts 26°
2026-05-05 00:22 40.69885 -74.16614 23 ft 9 kts 24°
2026-05-05 00:22 40.69920 -74.16593 22 ft 2 kts 24°
2026-05-05 00:22 40.69943 -74.16579 22 ft 6 kts 25°
2026-05-05 00:23 40.69991 -74.16538 21 ft 8 kts 58°
2026-05-05 00:23 40.69988 -74.16477 20 ft 12 kts 98°
2026-05-05 00:23 40.69951 -74.16420 19 ft 8 kts 168°
2026-05-05 00:23 40.69907 -74.16436 20 ft 7 kts 204°
2026-05-05 00:24 40.69838 -74.16481 21 ft 24 kts 206°
2026-05-05 00:24 40.69477 -74.16713 25 ft 98 kts 206°
2026-05-05 00:24 40.68644 -74.17249 110 ft 158 kts 207°
2026-05-05 00:24 40.67710 -74.17858 276 ft 139 kts 206°
2026-05-05 00:25 40.66869 -74.18391 176 ft 130 kts 206°
2026-05-05 00:25 40.65986 -74.19021 436 ft 153 kts 208°
2026-05-05 00:25 40.64983 -74.19774 748 ft 176 kts 210°
2026-05-05 00:25 40.63854 -74.20610 1355 ft 193 kts 210°
2026-05-05 00:26 40.62704 -74.21428 2552 ft 180 kts 209°
2026-05-05 00:26 40.61608 -74.22155 3636 ft 176 kts 212°
2026-05-05 00:26 40.60790 -74.23369 4303 ft 188 kts 247°
2026-05-05 00:26 40.60712 -74.25151 4911 ft 210 kts 281°
2026-05-05 00:27 40.61496 -74.26874 5472 ft 236 kts 312°
2026-05-05 00:27 40.62973 -74.28012 6045 ft 263 kts 336°
2026-05-05 00:27 40.64726 -74.28784 7015 ft 268 kts 338°
2026-05-05 00:27 40.66512 -74.29562 7922 ft 273 kts 338°
2026-05-05 00:28 40.68322 -74.30360 9031 ft 273 kts 338°
2026-05-05 00:28 40.70204 -74.30830 9990 ft 280 kts 355°
2026-05-05 00:28 40.72179 -74.30886 10771 ft 289 kts 353°
2026-05-05 00:28 40.74240 -74.31002 11305 ft 306 kts 353°
2026-05-05 00:29 40.76397 -74.31138 11719 ft 324 kts 353°
2026-05-05 00:29 40.78680 -74.31291 12233 ft 339 kts 353°
2026-05-05 00:29 40.81081 -74.31456 12826 ft 349 kts 352°
2026-05-05 00:29 40.83516 -74.31627 13702 ft 351 kts 352°
2026-05-05 00:30 40.85984 -74.31800 14345 ft 357 kts 352°
2026-05-05 00:30 40.88477 -74.31976 15085 ft 360 kts 352°
2026-05-05 00:30 40.90981 -74.32153 15756 ft 364 kts 352°
2026-05-05 00:30 40.93528 -74.32334 16437 ft 367 kts 352°
2026-05-05 00:31 40.96093 -74.32517 17117 ft 370 kts 352°
2026-05-05 00:31 40.98680 -74.32701 17774 ft 374 kts 352°
2026-05-05 00:31 41.01294 -74.32887 18376 ft 377 kts 352°
2026-05-05 00:31 41.03922 -74.33075 18971 ft 379 kts 352°
2026-05-05 00:32 41.06536 -74.33262 19513 ft 382 kts 352°
2026-05-05 00:32 41.09202 -74.33453 20060 ft 384 kts 352°
2026-05-05 00:32 41.11882 -74.33644 20632 ft 386 kts 353°
2026-05-05 00:32 41.14576 -74.33838 21156 ft 389 kts 353°
2026-05-05 00:33 41.17285 -74.34032 21724 ft 391 kts 353°
2026-05-05 00:33 41.20005 -74.34227 22248 ft 394 kts 353°
2026-05-05 00:33 41.22759 -74.34425 22813 ft 396 kts 353°
2026-05-05 00:33 41.25534 -74.34624 23353 ft 398 kts 353°
2026-05-05 00:34 41.28317 -74.34824 23797 ft 401 kts 353°
2026-05-05 00:34 41.31109 -74.35025 24233 ft 403 kts 353°
2026-05-05 00:34 41.33922 -74.35228 24654 ft 405 kts 353°
2026-05-05 00:34 41.36730 -74.35596 25048 ft 404 kts 343°
2026-05-05 00:35 41.39324 -74.36918 25433 ft 399 kts 327°
2026-05-05 00:35 41.41486 -74.39192 25784 ft 398 kts 311°
2026-05-05 00:35 41.43138 -74.42109 26166 ft 399 kts 303°
2026-05-05 00:35 41.44642 -74.45232 26499 ft 402 kts 301°
2026-05-05 00:36 41.46102 -74.48425 26907 ft 404 kts 300°
2026-05-05 00:36 41.47541 -74.51658 27288 ft 407 kts 300°
2026-05-05 00:36 41.48976 -74.54931 27625 ft 409 kts 300°
2026-05-05 00:36 41.50400 -74.58208 28006 ft 411 kts 300°
2026-05-05 00:37 41.51839 -74.61535 28352 ft 413 kts 300°
2026-05-05 00:37 41.53278 -74.64873 28708 ft 416 kts 300°
2026-05-05 00:37 41.54724 -74.68230 29035 ft 418 kts 300°
2026-05-05 00:37 41.56175 -74.71605 29370 ft 420 kts 299°
2026-05-05 00:38 41.57616 -74.74960 29701 ft 422 kts 299°
2026-05-05 00:38 41.59102 -74.78422 30010 ft 425 kts 299°
2026-05-05 00:38 41.60553 -74.81810 30289 ft 426 kts 300°
2026-05-05 00:38 41.62025 -74.85251 30667 ft 425 kts 300°
2026-05-05 00:39 41.63490 -74.88677 31104 ft 423 kts 300°
2026-05-05 00:39 41.64946 -74.92091 31525 ft 422 kts 300°
2026-05-05 00:39 41.66399 -74.95497 31927 ft 421 kts 300°
2026-05-05 00:40 41.69282 -75.02272 32004 ft 418 kts 300°
2026-05-05 00:40 41.72157 -75.09044 31998 ft 418 kts 300°
2026-05-05 00:41 41.75024 -75.15812 31994 ft 418 kts 300°
2026-05-05 00:41 41.77866 -75.22535 31985 ft 417 kts 300°
2026-05-05 00:42 41.80734 -75.29337 31975 ft 417 kts 300°
2026-05-05 00:42 41.83588 -75.36118 31979 ft 417 kts 300°
2026-05-05 00:43 41.86417 -75.42856 31981 ft 417 kts 300°
2026-05-05 00:43 41.89263 -75.49652 31958 ft 417 kts 299°
2026-05-05 00:44 41.92106 -75.56453 31956 ft 417 kts 299°
2026-05-05 00:44 41.94945 -75.63261 31958 ft 417 kts 299°
2026-05-05 00:45 41.97766 -75.70043 31950 ft 417 kts 299°
2026-05-05 00:45 42.00596 -75.76864 31948 ft 418 kts 299°
2026-05-05 00:46 42.03430 -75.83707 31939 ft 418 kts 299°
2026-05-05 00:46 42.06234 -75.90496 31912 ft 419 kts 299°
2026-05-05 00:48 42.08504 -75.96002 31808 ft 418 kts 299°
2026-05-05 00:49 42.11334 -76.02880 31807 ft 419 kts 298°
2026-05-05 00:49 42.14155 -76.09755 31804 ft 418 kts 298°
2026-05-05 00:50 42.16672 -76.16762 31803 ft 418 kts 293°
2026-05-05 00:50 42.18950 -76.23968 31793 ft 418 kts 294°
2026-05-05 00:51 42.21260 -76.31160 31793 ft 417 kts 294°
2026-05-05 00:51 42.23573 -76.38359 31776 ft 417 kts 293°
2026-05-05 00:52 42.25871 -76.45526 31771 ft 416 kts 293°
2026-05-05 00:52 42.27781 -76.51497 31774 ft 416 kts 293°
2026-05-05 00:53 42.30068 -76.58664 31763 ft 415 kts 293°
2026-05-05 00:53 42.32350 -76.65838 31765 ft 415 kts 293°
2026-05-05 00:54 42.34631 -76.73027 31756 ft 414 kts 293°
2026-05-05 00:54 42.36897 -76.80186 31756 ft 414 kts 293°
2026-05-05 00:55 42.39140 -76.87292 31754 ft 414 kts 292°
2026-05-05 00:55 42.41401 -76.94471 31750 ft 413 kts 292°
2026-05-05 00:56 42.43648 -77.01624 31746 ft 413 kts 292°
2026-05-05 00:56 42.45877 -77.08797 31750 ft 413 kts 292°
2026-05-05 00:57 42.48101 -77.15961 31745 ft 413 kts 292°
2026-05-05 00:57 42.50323 -77.23142 31747 ft 413 kts 292°
2026-05-05 00:58 42.52537 -77.30313 31739 ft 413 kts 292°
2026-05-05 00:58 42.54747 -77.37494 31745 ft 412 kts 292°
2026-05-05 00:59 42.56936 -77.44621 31750 ft 412 kts 292°
2026-05-05 00:59 42.59136 -77.51807 31745 ft 412 kts 291°
2026-05-05 01:00 42.61332 -77.58998 31748 ft 412 kts 291°
2026-05-05 01:00 42.63523 -77.66193 31755 ft 412 kts 291°
2026-05-05 01:01 42.65709 -77.73395 31745 ft 411 kts 290°
2026-05-05 01:01 42.67736 -77.80657 31748 ft 411 kts 290°
2026-05-05 01:01 42.68753 -77.84295 31513 ft 411 kts 290°
2026-05-05 01:02 42.69754 -77.87877 31164 ft 411 kts 290°
2026-05-05 01:02 42.70782 -77.91558 30812 ft 412 kts 289°
2026-05-05 01:02 42.71467 -77.94016 30587 ft 413 kts 289°
2026-05-05 01:02 42.72491 -77.97693 30241 ft 415 kts 289°
2026-05-05 01:03 42.73512 -78.01360 29898 ft 416 kts 289°
2026-05-05 01:03 42.74543 -78.05072 29515 ft 418 kts 289°
2026-05-05 01:03 42.75573 -78.08782 29112 ft 419 kts 289°
2026-05-05 01:03 42.76605 -78.12510 28634 ft 419 kts 289°
2026-05-05 01:04 42.77618 -78.16172 28128 ft 420 kts 289°
2026-05-05 01:04 42.79679 -78.23642 27142 ft 422 kts 289°
2026-05-05 01:04 42.80709 -78.27383 26671 ft 424 kts 289°
2026-05-05 01:05 42.81748 -78.31162 26186 ft 425 kts 288°
2026-05-05 01:05 42.82788 -78.34949 25710 ft 426 kts 288°
2026-05-05 01:05 42.83820 -78.38717 25255 ft 426 kts 288°
2026-05-05 01:05 42.84862 -78.42526 24799 ft 425 kts 288°
2026-05-05 01:06 42.85877 -78.46240 24359 ft 422 kts 288°
2026-05-05 01:06 42.86909 -78.50023 23811 ft 416 kts 288°
2026-05-05 01:06 42.87876 -78.53576 23204 ft 400 kts 288°
2026-05-05 01:06 42.88828 -78.57072 22494 ft 385 kts 288°
2026-05-05 01:07 42.89745 -78.60449 21799 ft 372 kts 288°
2026-05-05 01:07 42.90626 -78.63699 21111 ft 361 kts 288°
2026-05-05 01:07 42.91489 -78.66879 20312 ft 354 kts 288°
2026-05-05 01:07 42.92339 -78.70019 19464 ft 350 kts 288°
2026-05-05 01:08 42.93217 -78.73115 18628 ft 348 kts 294°
2026-05-05 01:08 42.94615 -78.75820 17794 ft 350 kts 306°
2026-05-05 01:08 42.96125 -78.78356 16920 ft 347 kts 305°
2026-05-05 01:08 42.97607 -78.80846 16980 ft 327 kts 305°
2026-05-05 01:09 42.99029 -78.83219 17026 ft 312 kts 304°
2026-05-05 01:09 43.00383 -78.85473 17017 ft 311 kts 304°
2026-05-05 01:09 43.01757 -78.87758 16990 ft 311 kts 304°
2026-05-05 01:09 43.03128 -78.90036 16982 ft 311 kts 304°
2026-05-05 01:10 43.04497 -78.92313 16975 ft 311 kts 304°
2026-05-05 01:10 43.05872 -78.94602 16977 ft 311 kts 304°
2026-05-05 01:10 43.07245 -78.96889 16977 ft 311 kts 304°
2026-05-05 01:10 43.08613 -78.99168 16983 ft 311 kts 304°
2026-05-05 01:11 43.09986 -79.01457 16993 ft 311 kts 304°
2026-05-05 01:11 43.11347 -79.03729 16974 ft 305 kts 304°
2026-05-05 01:11 43.12681 -79.05957 16979 ft 300 kts 304°
2026-05-05 01:11 43.14014 -79.08185 16370 ft 308 kts 304°
2026-05-05 01:12 43.15353 -79.10422 15920 ft 308 kts 304°
2026-05-05 01:12 43.16726 -79.12717 15454 ft 307 kts 304°
2026-05-05 01:12 43.18066 -79.14961 14999 ft 306 kts 304°
2026-05-05 01:12 43.19413 -79.17218 14558 ft 305 kts 304°
2026-05-05 01:13 43.20752 -79.19464 14113 ft 304 kts 304°
2026-05-05 01:13 43.22089 -79.21707 13684 ft 303 kts 304°
2026-05-05 01:13 43.23419 -79.23941 13235 ft 302 kts 304°
2026-05-05 01:13 43.24741 -79.26163 12741 ft 300 kts 304°
2026-05-05 01:14 43.26057 -79.28376 12331 ft 298 kts 304°
2026-05-05 01:14 43.27357 -79.30564 12006 ft 292 kts 304°
2026-05-05 01:14 43.28629 -79.32706 11649 ft 288 kts 304°
2026-05-05 01:14 43.29922 -79.34802 11250 ft 289 kts 311°
2026-05-05 01:15 43.31638 -79.36299 10851 ft 297 kts 328°
2026-05-05 01:15 43.33470 -79.37506 10455 ft 293 kts 324°
2026-05-05 01:15 43.34971 -79.39261 10060 ft 278 kts 303°
2026-05-05 01:15 43.36108 -79.41381 9689 ft 274 kts 300°
2026-05-05 01:16 43.37210 -79.43515 9283 ft 272 kts 300°
2026-05-05 01:16 43.38307 -79.45631 8866 ft 271 kts 300°
2026-05-05 01:16 43.39403 -79.47733 8464 ft 270 kts 300°
2026-05-05 01:16 43.40498 -79.49827 8063 ft 269 kts 300°
2026-05-05 01:17 43.41785 -79.51656 7934 ft 269 kts 323°
2026-05-05 01:17 43.43572 -79.52375 7950 ft 272 kts 347°
2026-05-05 01:17 43.45468 -79.52613 7947 ft 274 kts 347°
2026-05-05 01:17 43.47378 -79.52877 7948 ft 276 kts 347°
2026-05-05 01:18 43.49260 -79.53120 7946 ft 275 kts 347°
2026-05-05 01:18 43.51173 -79.53358 7787 ft 278 kts 348°
2026-05-05 01:18 43.53115 -79.53595 7280 ft 284 kts 348°
2026-05-05 01:18 43.55104 -79.53833 6781 ft 288 kts 349°
2026-05-05 01:19 43.57113 -79.54072 6294 ft 292 kts 349°
2026-05-05 01:19 43.59172 -79.53919 5767 ft 306 kts 12°
2026-05-05 01:19 43.61036 -79.52504 5230 ft 309 kts 41°
2026-05-05 01:19 43.62496 -79.50342 4713 ft 305 kts 46°
2026-05-05 01:20 43.63931 -79.48205 4187 ft 304 kts 46°
2026-05-05 01:20 43.65369 -79.46086 3918 ft 296 kts 46°
2026-05-05 01:20 43.66730 -79.44089 3948 ft 279 kts 46°
2026-05-05 01:20 43.68033 -79.42181 3964 ft 268 kts 46°
2026-05-05 01:21 43.69309 -79.40316 3948 ft 262 kts 46°
2026-05-05 01:21 43.70534 -79.38524 3944 ft 252 kts 46°
2026-05-05 01:21 43.71725 -79.36782 3936 ft 253 kts 46°
2026-05-05 01:21 43.72934 -79.35014 3913 ft 253 kts 46°
2026-05-05 01:22 43.74144 -79.33250 3838 ft 251 kts 43°
2026-05-05 01:22 43.75596 -79.31998 3704 ft 244 kts 11°
2026-05-05 01:22 43.77220 -79.31894 3436 ft 227 kts 336°
2026-05-05 01:22 43.78617 -79.32733 3239 ft 217 kts 321°
2026-05-05 01:23 43.79908 -79.33799 3025 ft 212 kts 312°
2026-05-05 01:23 43.80756 -79.35270 2868 ft 186 kts 277°
2026-05-05 01:23 43.80884 -79.36989 2950 ft 179 kts 261°
2026-05-05 01:23 43.80834 -79.38714 2951 ft 179 kts 260°
2026-05-05 01:24 43.80760 -79.40384 2924 ft 167 kts 259°
2026-05-05 01:24 43.80604 -79.41938 2800 ft 161 kts 246°
2026-05-05 01:24 43.80038 -79.43254 2457 ft 159 kts 226°
2026-05-05 01:24 43.79166 -79.44174 2092 ft 161 kts 213°
2026-05-05 01:25 43.78209 -79.44964 1830 ft 159 kts 215°
2026-05-05 01:25 43.77355 -79.45917 1632 ft 157 kts 220°
2026-05-05 01:25 43.76570 -79.46979 1691 ft 159 kts 225°
2026-05-05 01:25 43.75857 -79.48049 1616 ft 143 kts 224°
2026-05-05 01:26 43.75180 -79.49050 1421 ft 143 kts 225°
2026-05-05 01:26 43.74500 -79.50057 1434 ft 148 kts 224°
2026-05-05 01:26 43.73826 -79.51069 1461 ft 136 kts 226°
2026-05-05 01:26 43.73194 -79.52025 1362 ft 133 kts 225°
2026-05-05 01:27 43.72565 -79.52961 1253 ft 134 kts 224°
2026-05-05 01:27 43.71905 -79.53881 1118 ft 137 kts 223°
2026-05-05 01:27 43.71249 -79.54849 1058 ft 140 kts 227°
2026-05-05 01:27 43.70596 -79.55839 947 ft 141 kts 226°
2026-05-05 01:28 43.69921 -79.56828 984 ft 142 kts 226°
2026-05-05 01:28 43.69233 -79.57828 961 ft 146 kts 223°
2026-05-05 01:28 43.68504 -79.58851 803 ft 153 kts 224°
2026-05-05 01:28 43.67753 -79.59938 623 ft 162 kts 224°
2026-05-05 01:29 43.67019 -79.61009 570 ft 138 kts 226°
2026-05-05 01:29 43.66506 -79.61753 565 ft 65 kts 226°
2026-05-05 01:29 43.66268 -79.62093 569 ft 40 kts 226°
2026-05-05 01:29 43.66175 -79.62303 571 ft 20 kts 280°
2026-05-05 01:30 43.66223 -79.62371 564 ft 11 kts 322°
2026-05-05 01:30 43.66292 -79.62444 563 ft 8 kts 339°
2026-05-05 01:30 43.66322 -79.62442 563 ft 1 kts 38°
2026-05-05 01:30 43.66341 -79.62421 564 ft 9 kts 39°
2026-05-05 01:31 43.66420 -79.62318 567 ft 22 kts 45°
2026-05-05 01:31 43.66565 -79.62146 569 ft 31 kts 45°
2026-05-05 01:31 43.66723 -79.61940 570 ft 31 kts 41°
2026-05-05 01:31 43.66886 -79.61735 570 ft 32 kts 42°
2026-05-05 01:32 43.67056 -79.61521 570 ft 33 kts 43°
2026-05-05 01:32 43.67220 -79.61295 569 ft 28 kts 52°
2026-05-05 01:32 43.67296 -79.61274 569 ft 6 kts 313°
2026-05-05 01:32 43.67332 -79.61334 567 ft 12 kts 314°
2026-05-05 01:33 43.67417 -79.61450 565 ft 23 kts 315°
2026-05-05 01:33 43.67550 -79.61619 565 ft 21 kts 316°
2026-05-05 01:33 43.67634 -79.61664 567 ft 11 kts 27°
2026-05-05 01:33 43.67694 -79.61594 565 ft 13 kts 44°
2026-05-05 01:34 43.67762 -79.61493 567 ft 16 kts 47°
2026-05-05 01:34 43.67843 -79.61367 570 ft 15 kts 61°
2026-05-05 01:34 43.67848 -79.61269 564 ft 8 kts 91°
2026-05-05 01:34 43.67848 -79.61259 564 ft 0 kts 91°